[[{"header":{"parameterUnit":"m.s-1","parameterCategory":1,"la1":30.2991,"la2":30.254,"lo1":-89.0895,"lo2":-89.0444,"dy":0.0017,"dx":0.0017,"nx":28,"ny":28,"refTime":"2024-07-21T21:00:00:Z","depth":0,"parameterNumber":2,"parameterNumberName":"U-component_of_WINDS"},"data":[0,0,0,0,0,0,0,0,0,0,0,0,0,0,0,0,0,0,0,0,0,0,0,0,0,0,0,0,0,0,0,0,0,0,0,0,0,0,0,0,0,0,0,0,0,0,0,0,0,0,0,0,0,0,0,0,0,0,0.668,0.668,0,0.6696,0.6696,0.6696,0.6682,0.6682,0.6681,0.6681,0.6694,0.6695,0.6696,0,0,0,0,0,0,0,0,0,0,0,0,0,0.6637,0.6637,0.668,0.668,0.668,0.6696,0.6696,0.6696,0.6682,0.6682,0.6681,0.668,0.6694,0.6695,0.6696,0,0,0,0,0,0,0,0,0,0,0,0,0,0.6654,0.6638,0.668,0.6676,0.6675,0.6695,0.6696,0.6696,0.6682,0.6682,0.6681,0.668,0.6694,0.6695,0.6696,0.6721,0,0,0.67,0.6701,0,0,0,0,0,0,0,0,0.6653,0.6656,0.6676,0.6676,0.6676,0.6686,0.6685,0.6704,0.6683,0.668,0.6681,0.668,0.6692,0.6693,0.6698,0.6721,0.6722,0.67,0.6701,0.6702,0.6702,0,0,0,0,0,0,0,0.6652,0.6655,0.6686,0.6676,0.6676,0.6672,0.6674,0.6689,0.669,0.668,0.6679,0.6681,0.6692,0.6697,0.6698,0.6722,0.67,0.6701,0.6702,0.6703,0.6766,0.6767,0,0,0,0,0,0,0.6651,0.6654,0.6686,0.6687,0.6662,0.6674,0.6675,0.6684,0.669,0.669,0.6682,0.668,0.6695,0.6697,0.6699,0.6727,0.6702,0.6703,0.6704,0.6765,0.6766,0.6767,0,0,0,0,0,0,0.6651,0.6654,0.6685,0.667,0.6674,0.6675,0.6685,0.6684,0.6689,0.6692,0.6691,0.6687,0.6694,0.6697,0.6715,0.6728,0.6703,0.6705,0.6764,0.6766,0.6767,0.6785,0,0,0,0,0,0,0.6649,0.6654,0.6664,0.667,0.6675,0.6702,0.6685,0.6685,0.6692,0.669,0.6696,0.6696,0.6694,0.6714,0.6717,0.6729,0.6706,0.6763,0.6765,0.6766,0.6783,0.6787,0.679,0,0,0,0,0,0.6648,0.6668,0.6665,0.6668,0.6687,0.6703,0.6705,0.6702,0.6693,0.6702,0.6704,0.6696,0.6726,0.6716,0.6719,0.6732,0.6762,0.6764,0.6766,0.6782,0.6786,0.679,0,0,0,0,0,0,0.6662,0.6669,0.6665,0.6688,0.6695,0.6701,0.6712,0.6707,0.6716,0.6714,0.671,0.6712,0.6731,0.6734,0.6722,0.6756,0.6743,0.6745,0.6753,0.6757,0.6761,0.6759,0.6707,0,0,0,0,0,0.6668,0.6681,0.6686,0.6706,0.671,0.6711,0.6718,0.6715,0.6722,0.6724,0.6727,0.6733,0.6744,0.6751,0.6761,0.6784,0.6785,0.6795,0.6798,0.6801,0.6803,0.6814,0.6819,0.6774,0.6774,0.6774,0,0,0.668,0.6686,0.6694,0.6709,0.6714,0.6727,0.6713,0.6727,0.6736,0.6726,0.6744,0.6746,0.6753,0.6774,0.6783,0.6776,0.6816,0.6803,0.6806,0.6806,0.6817,0.6821,0.6825,0.6775,0.6775,0.6775,0,0,0.6709,0.6715,0.6732,0.6737,0.6746,0.6746,0.675,0.6757,0.6758,0.6776,0.6768,0.6779,0.6798,0.6803,0.6808,0.6839,0.6832,0.6842,0.6859,0.687,0.6874,0.6877,0.6887,0.6891,0.6845,0.6845,0.6845,0,0.6722,0.6742,0.6741,0.6756,0.6762,0.6755,0.6771,0.6777,0.6787,0.6792,0.6785,0.6808,0.6812,0.6833,0.6841,0.6846,0.6849,0.6841,0.6874,0.6877,0.6879,0.6889,0.6893,0.6846,0.6846,0.6846,0.6846,0,0.6758,0.6772,0.6785,0.6796,0.6804,0.682,0.682,0.6828,0.6826,0.6827,0.6845,0.6849,0.686,0.6865,0.6862,0.6886,0.6882,0.6874,0.686,0.6885,0.6894,0.6897,0.6847,0.6847,0.6847,0.6846,0,0,0.6795,0.6806,0.681,0.6815,0.6824,0.6835,0.685,0.6861,0.6868,0.6876,0.6888,0.6904,0.6897,0.6903,0.6901,0.6911,0.6934,0.6902,0.6902,0.6907,0.696,0.6964,0.6969,0.693,0.6931,0.6932,0.6959,0,0.6822,0.685,0.6849,0.6874,0.6886,0.688,0.6893,0.6899,0.6901,0.6911,0.6913,0.6924,0.6915,0.6918,0.6928,0.6929,0.6944,0.6927,0.694,0.694,0.6937,0.6973,0.6978,0.7004,0.6962,0.6963,0.6963,0,0.6858,0.6868,0.6895,0.6902,0.6907,0.6919,0.6929,0.6939,0.6946,0.6947,0.6954,0.695,0.6964,0.6951,0.6971,0.6959,0.6965,0.6966,0.6967,0.6967,0.6952,0.6973,0.7012,0.7015,0.6969,0.6969,0.6968,0,0.6881,0.6901,0.6919,0.6924,0.6933,0.6941,0.6945,0.6952,0.6959,0.6967,0.6972,0.6982,0.6987,0.6995,0.6994,0.6985,0.7013,0.7001,0.7013,0.7013,0.7018,0.7018,0.7057,0.7024,0.7024,0.7024,0.7024,0,0.6911,0.6927,0.6929,0.694,0.6958,0.6957,0.6974,0.6977,0.6983,0.6994,0.699,0.7,0.6998,0.7008,0.7008,0.7023,0.7026,0.7026,0.7025,0.7026,0.7025,0.7028,0.7026,0.7025,0.7025,0.7024,0.7024,0,0.6938,0.6941,0.696,0.6967,0.697,0.6982,0.6988,0.6998,0.7,0.7014,0.7017,0.7019,0.7031,0.7031,0.7044,0.7044,0.7063,0.7061,0.706,0.7059,0.7072,0.707,0.7113,0.7118,0.7083,0.7083,0.7084,0,0.6957,0.6969,0.6978,0.6986,0.699,0.7002,0.701,0.7009,0.7017,0.7026,0.7035,0.7047,0.7056,0.7074,0.7077,0.7087,0.7084,0.7098,0.7085,0.7085,0.7083,0.7081,0.7082,0.71,0.7101,0.7101,0.7101,0,0.6989,0.699,0.7,0.7012,0.7021,0.703,0.7038,0.7044,0.7045,0.7053,0.7066,0.7073,0.7087,0.7098,0.7107,0.7111,0.7106,0.7106,0.7109,0.7109,0.7108,0.7107,0.7066,0.7104,0.7104,0.7104,0.7104,0.7104,0.7011,0.7022,0.703,0.7042,0.7049,0.7057,0.7066,0.707,0.708,0.7092,0.7091,0.7105,0.7112,0.7124,0.7129,0.7139,0.7133,0.7138,0.7139,0.714,0.7141,0.7107,0.7141,0.714,0.714,0.714,0.714,0,0.7042,0.7047,0.7059,0.7071,0.708,0.7077,0.7086,0.7093,0.7106,0.7113,0.7122,0.7136,0.7147,0.7151,0.7161,0.7168,0.7166,0.7171,0.7169,0.717,0.7146,0.7141,0.7172,0.7172,0.7172,0.7172,0.7172,0.7172,0.7059,0.7076,0.7078,0.7098,0.7103,0.7117,0.7122,0.7129,0.7135,0.7151,0.7161,0.7163,0.7169,0.718,0.7189,0.719,0.7194,0.7199,0.7199,0.7175,0.7172,0.7169,0.7165,0.72,0.72,0.7222,0.7222,0.7223]},{"header":{"parameterUnit":"m.s-1","parameterCategory":1,"la1":30.2991,"la2":30.254,"lo1":-89.0895,"lo2":-89.0444,"dy":0.0017,"dx":0.0017,"nx":28,"ny":28,"refTime":"2024-07-21T21:00:00:Z","depth":0,"parameterNumber":3,"parameterNumberName":"V-component_of_WINDS"},"data":[0,0,0,0,0,0,0,0,0,0,0,0,0,0,0,0,0,0,0,0,0,0,0,0,0,0,0,0,0,0,0,0,0,0,0,0,0,0,0,0,0,0,0,0,0,0,0,0,0,0,0,0,0,0,0,0,0,0,0.6531,0.653,0,0.6512,0.6512,0.6512,0.6442,0.644,0.6439,0.6437,0.6421,0.6422,0.6423,0,0,0,0,0,0,0,0,0,0,0,0,0,0.6506,0.6507,0.6531,0.653,0.653,0.6512,0.6512,0.6512,0.6442,0.644,0.6438,0.6436,0.642,0.6422,0.6423,0,0,0,0,0,0,0,0,0,0,0,0,0,0.6505,0.6507,0.6531,0.6493,0.649,0.6512,0.6512,0.6512,0.6443,0.644,0.6438,0.6435,0.642,0.6422,0.6423,0.6482,0,0,0.6428,0.6429,0,0,0,0,0,0,0,0,0.6505,0.6506,0.6499,0.6496,0.6492,0.6477,0.6497,0.6502,0.6443,0.6461,0.6437,0.6434,0.6442,0.6441,0.6443,0.6481,0.648,0.6428,0.6429,0.643,0.643,0,0,0,0,0,0,0,0.6505,0.6507,0.6523,0.6499,0.6495,0.6477,0.6475,0.6498,0.6465,0.6459,0.6454,0.6452,0.6439,0.6442,0.6442,0.648,0.6428,0.643,0.6431,0.6431,0.6564,0.6566,0,0,0,0,0,0,0.6511,0.6507,0.6524,0.6523,0.6493,0.648,0.6477,0.6484,0.6464,0.6459,0.6454,0.6449,0.644,0.644,0.6441,0.6508,0.643,0.6431,0.6432,0.6561,0.6564,0.6567,0,0,0,0,0,0,0.651,0.6513,0.6525,0.6513,0.6514,0.6483,0.6492,0.6485,0.6488,0.6461,0.6455,0.6463,0.6438,0.6439,0.6472,0.6507,0.6432,0.6433,0.6558,0.6562,0.6566,0.6643,0,0,0,0,0,0,0.651,0.6513,0.6535,0.6514,0.6515,0.6555,0.6494,0.6486,0.649,0.6483,0.6468,0.6463,0.6437,0.647,0.6473,0.6508,0.6435,0.6555,0.656,0.6564,0.6638,0.6649,0.6659,0,0,0,0,0,0.6509,0.6558,0.6536,0.6539,0.6541,0.6558,0.6558,0.6526,0.6493,0.6515,0.6498,0.6463,0.6502,0.6474,0.6477,0.6513,0.6552,0.6558,0.6564,0.6633,0.6647,0.6659,0,0,0,0,0,0,0.6585,0.6555,0.653,0.6574,0.6569,0.6546,0.6572,0.6542,0.6547,0.654,0.6501,0.6498,0.6536,0.6527,0.6496,0.6568,0.6521,0.6528,0.6572,0.6586,0.6597,0.6599,0.6436,0,0,0,0,0,0.6606,0.6622,0.6595,0.6636,0.6634,0.6604,0.661,0.6585,0.6579,0.6577,0.6562,0.6557,0.6568,0.6576,0.6585,0.6635,0.6631,0.6661,0.6672,0.6681,0.6688,0.6714,0.6727,0.6586,0.6586,0.6586,0,0,0.6651,0.6637,0.6649,0.6651,0.6644,0.6661,0.6603,0.6623,0.6636,0.658,0.661,0.6598,0.659,0.6632,0.665,0.6626,0.6726,0.6689,0.6696,0.6698,0.6721,0.6735,0.6747,0.659,0.6589,0.6588,0,0,0.6743,0.6733,0.6766,0.676,0.6749,0.6728,0.6736,0.6717,0.6708,0.6736,0.6695,0.6709,0.6729,0.6725,0.6725,0.6813,0.6781,0.6817,0.6875,0.6901,0.6912,0.6921,0.6953,0.6965,0.6823,0.6823,0.6824,0,0.6801,0.6824,0.6787,0.681,0.6812,0.676,0.6794,0.679,0.6783,0.6786,0.6759,0.6782,0.6773,0.6813,0.6834,0.6836,0.6845,0.6819,0.6913,0.6922,0.6931,0.6961,0.6973,0.6828,0.6827,0.6827,0.6826,0,0.6896,0.6913,0.6941,0.6935,0.6939,0.6968,0.6935,0.6944,0.6919,0.6901,0.6931,0.6918,0.6923,0.693,0.6906,0.6967,0.6952,0.692,0.6873,0.6949,0.6977,0.6988,0.6834,0.6833,0.6831,0.683,0,0,0.7036,0.7008,0.7019,0.7015,0.6999,0.7012,0.7037,0.7041,0.705,0.7046,0.7067,0.7084,0.7054,0.7054,0.7029,0.7052,0.7122,0.7016,0.7015,0.7037,0.7189,0.7214,0.7228,0.71,0.7102,0.7104,0.719,0,0.7124,0.7166,0.7132,0.718,0.7195,0.7146,0.7168,0.7161,0.7144,0.7155,0.7136,0.7149,0.7107,0.7107,0.7127,0.711,0.7152,0.7103,0.712,0.7121,0.7125,0.7242,0.727,0.7351,0.72,0.7202,0.7203,0,0.7232,0.7232,0.7282,0.7261,0.7267,0.7287,0.7287,0.7298,0.7289,0.7275,0.7275,0.7243,0.7267,0.7219,0.7252,0.7219,0.7224,0.7216,0.7218,0.722,0.7168,0.7249,0.7377,0.739,0.722,0.7218,0.7217,0,0.7331,0.7343,0.7374,0.7373,0.7349,0.7365,0.7356,0.7344,0.7348,0.7348,0.7351,0.7354,0.7356,0.736,0.733,0.7298,0.7367,0.7317,0.7357,0.7358,0.7375,0.7374,0.7507,0.7376,0.7376,0.7376,0.7375,0,0.7433,0.7465,0.7418,0.7438,0.7472,0.7433,0.7469,0.7455,0.7444,0.746,0.7417,0.7433,0.7391,0.7403,0.738,0.741,0.7412,0.7402,0.7395,0.7406,0.7408,0.741,0.7404,0.7379,0.7378,0.7377,0.7377,0,0.755,0.752,0.755,0.7525,0.7519,0.7546,0.7525,0.7542,0.7521,0.7542,0.7544,0.7513,0.7524,0.7494,0.7501,0.7485,0.753,0.7514,0.7533,0.7529,0.7571,0.7568,0.7711,0.7728,0.7585,0.7587,0.7588,0,0.7618,0.7642,0.7618,0.7625,0.7618,0.763,0.7634,0.7596,0.7601,0.7591,0.7609,0.7617,0.7621,0.7642,0.762,0.7625,0.7609,0.7659,0.761,0.762,0.7611,0.7611,0.7613,0.767,0.7672,0.7673,0.7674,0,0.7742,0.7725,0.7732,0.7733,0.7738,0.7737,0.7733,0.7741,0.77,0.7708,0.7719,0.7722,0.7728,0.7737,0.7737,0.7728,0.7695,0.7689,0.7699,0.7711,0.7722,0.7718,0.7562,0.7687,0.7685,0.7685,0.7684,0.7683,0.7837,0.7856,0.7842,0.785,0.7843,0.784,0.7854,0.7835,0.7842,0.7844,0.7821,0.7836,0.7825,0.7821,0.7816,0.7828,0.7805,0.7819,0.7823,0.7827,0.7835,0.7719,0.7827,0.7827,0.7826,0.7826,0.7826,0,0.796,0.7948,0.7956,0.7951,0.7957,0.7923,0.7917,0.7925,0.7939,0.7931,0.7935,0.7947,0.7954,0.7932,0.7936,0.795,0.7935,0.7952,0.7952,0.795,0.7854,0.7846,0.7965,0.7965,0.7965,0.7965,0.7964,0.7964,0.8025,0.8054,0.8036,0.8061,0.8048,0.8062,0.8062,0.8059,0.8052,0.8067,0.8072,0.8057,0.8043,0.8046,0.8051,0.8044,0.8048,0.8072,0.806,0.7971,0.7957,0.7944,0.7936,0.8072,0.8073,0.8155,0.8156,0.8157]}]]